Total_Precipitation_Accumulation
0.16 0.14 0.14 0.13 0.12 0.12 0.12 0.10 0.09 0.08 0.07 0.07 0.07 0.07 0.08 0.09 0.11 0.13 0.12 0.11 0.11 0.11 0.10 0.11 0.11 0.12 0.14 0.14 0.16 0.20 0.25 0.35 0.39 0.22 0.15 0.18 0.25 0.28 0.32 0.38 0.39 0.42 0.54
0.09 0.08 0.08 0.07 0.07 0.07 0.07 0.07 0.07 0.08 0.08 0.08 0.08 0.10 0.11 0.11 0.13 0.13 0.12 0.11 0.11 0.11 0.12 0.14 0.14 0.14 0.16 0.17 0.21 0.24 0.28 0.38 0.50 0.42 0.30 0.33 0.37 0.40 0.50 0.53 0.48 0.43 0.51
0.08 0.07 0.06 0.07 0.07 0.08 0.08 0.09 0.09 0.10 0.11 0.13 0.14 0.16 0.14 0.13 0.12 0.13 0.13 0.12 0.12 0.13 0.15 0.16 0.17 0.19 0.21 0.24 0.31 0.35 0.38 0.42 0.54 0.57 0.45 0.47 0.52 0.59 0.71 0.66 0.56 0.52 0.44
0.09 0.08 0.08 0.09 0.10 0.12 0.12 0.13 0.14 0.15 0.17 0.18 0.18 0.16 0.14 0.13 0.11 0.10 0.09 0.09 0.11 0.13 0.16 0.20 0.23 0.28 0.32 0.36 0.38 0.38 0.43 0.49 0.54 0.61 0.57 0.60 0.65 0.71 0.75 0.75 0.62 0.53 0.50
0.11 0.11 0.13 0.16 0.17 0.18 0.19 0.19 0.20 0.20 0.19 0.19 0.17 0.14 0.13 0.10 0.07 0.05 0.04 0.06 0.10 0.13 0.16 0.18 0.23 0.31 0.37 0.36 0.35 0.36 0.46 0.57 0.59 0.67 0.68 0.65 0.63 0.71 0.72 0.64 0.56 0.48 0.42
0.22 0.25 0.25 0.25 0.25 0.25 0.24 0.24 0.25 0.23 0.20 0.17 0.13 0.10 0.09 0.05 0.05 0.05 0.05 0.07 0.12 0.16 0.19 0.19 0.18 0.21 0.21 0.21 0.28 0.34 0.44 0.61 0.81 0.91 0.80 0.68 0.55 0.54 0.58 0.55 0.56 0.52 0.43
0.38 0.36 0.33 0.30 0.29 0.27 0.25 0.26 0.24 0.20 0.15 0.12 0.09 0.06 0.06 0.05 0.03 0.04 0.05 0.07 0.13 0.20 0.23 0.21 0.15 0.12 0.15 0.19 0.24 0.29 0.39 0.56 0.78 1.02 1.00 0.72 0.64 0.58 0.61 0.61 0.60 0.62 0.53
0.42 0.39 0.33 0.27 0.24 0.24 0.24 0.22 0.16 0.13 0.11 0.09 0.07 0.05 0.07 0.04 0.02 0.02 0.03 0.06 0.12 0.17 0.20 0.20 0.19 0.17 0.18 0.23 0.24 0.27 0.36 0.52 0.67 0.76 0.97 0.80 0.64 0.61 0.62 0.60 0.61 0.58 0.45
0.37 0.30 0.22 0.17 0.17 0.16 0.14 0.12 0.11 0.11 0.10 0.07 0.04 0.04 0.06 0.06 0.02 0.01 0.02 0.04 0.08 0.12 0.14 0.15 0.14 0.16 0.20 0.32 0.39 0.47 0.57 0.73 0.81 0.95 1.10 1.06 0.93 0.83 0.69 0.62 0.61 0.52 0.42
0.22 0.17 0.14 0.12 0.09 0.08 0.08 0.09 0.10 0.09 0.08 0.05 0.03 0.04 0.06 0.07 0.02 0.00 0.01 0.03 0.06 0.06 0.08 0.12 0.14 0.16 0.24 0.41 0.55 0.66 0.77 0.90 0.86 0.93 1.12 1.17 1.01 0.98 0.99 0.83 0.67 0.52 0.43
0.11 0.09 0.08 0.06 0.04 0.04 0.06 0.08 0.08 0.07 0.07 0.06 0.05 0.06 0.07 0.05 0.02 0.00 0.01 0.02 0.04 0.05 0.08 0.16 0.24 0.24 0.31 0.50 0.69 0.75 0.92 1.02 0.97 0.89 0.84 0.82 0.86 0.87 0.85 0.82 0.67 0.49 0.41
0.06 0.05 0.04 0.03 0.02 0.02 0.06 0.08 0.07 0.08 0.08 0.07 0.06 0.05 0.05 0.06 0.04 0.01 0.00 0.01 0.04 0.09 0.18 0.26 0.33 0.34 0.39 0.59 0.74 0.92 1.13 1.22 1.04 0.88 0.68 0.59 0.57 0.61 0.65 0.62 0.54 0.44 0.37
0.07 0.06 0.04 0.03 0.03 0.03 0.06 0.07 0.07 0.08 0.07 0.06 0.05 0.05 0.05 0.06 0.05 0.01 0.01 0.02 0.04 0.10 0.22 0.33 0.38 0.40 0.54 0.80 1.02 1.18 1.28 1.22 1.08 0.84 0.63 0.56 0.51 0.48 0.50 0.54 0.51 0.41 0.34
0.08 0.07 0.05 0.05 0.06 0.05 0.06 0.05 0.05 0.06 0.05 0.05 0.06 0.06 0.07 0.07 0.06 0.04 0.04 0.04 0.06 0.11 0.21 0.35 0.46 0.53 0.69 0.95 1.16 1.29 1.28 1.17 0.98 0.78 0.65 0.61 0.55 0.49 0.49 0.44 0.39 0.32 0.29
0.07 0.05 0.05 0.04 0.06 0.07 0.07 0.03 0.02 0.03 0.02 0.03 0.06 0.07 0.10 0.09 0.06 0.07 0.09 0.09 0.10 0.14 0.22 0.30 0.40 0.53 0.72 0.91 1.07 1.16 1.14 1.04 0.92 0.71 0.59 0.59 0.60 0.53 0.49 0.42 0.33 0.24 0.22
0.06 0.05 0.04 0.03 0.04 0.05 0.09 0.08 0.02 0.01 0.01 0.02 0.03 0.05 0.06 0.06 0.05 0.06 0.09 0.12 0.15 0.20 0.25 0.32 0.42 0.56 0.74 0.91 1.02 1.03 0.95 0.88 0.77 0.63 0.54 0.51 0.50 0.47 0.45 0.38 0.28 0.22 0.21
0.04 0.04 0.04 0.03 0.04 0.05 0.08 0.12 0.11 0.06 0.03 0.04 0.03 0.03 0.04 0.04 0.04 0.05 0.09 0.14 0.16 0.21 0.24 0.35 0.48 0.60 0.74 0.88 0.95 0.93 0.89 0.79 0.68 0.58 0.51 0.46 0.42 0.39 0.34 0.29 0.24 0.21 0.19
0.04 0.02 0.02 0.03 0.03 0.05 0.07 0.09 0.10 0.12 0.14 0.14 0.08 0.04 0.04 0.05 0.06 0.06 0.09 0.12 0.14 0.20 0.31 0.45 0.55 0.61 0.68 0.76 0.82 0.86 0.86 0.77 0.66 0.57 0.53 0.48 0.41 0.34 0.27 0.22 0.18 0.16 0.15
0.04 0.05 0.03 0.02 0.02 0.03 0.05 0.06 0.06 0.09 0.11 0.12 0.11 0.07 0.07 0.08 0.10 0.12 0.13 0.14 0.21 0.30 0.39 0.50 0.57 0.61 0.62 0.63 0.68 0.72 0.73 0.70 0.63 0.57 0.53 0.50 0.42 0.32 0.22 0.15 0.12 0.09 0.10
0.02 0.01 0.01 0.02 0.01 0.02 0.03 0.04 0.04 0.07 0.10 0.12 0.13 0.10 0.10 0.13 0.15 0.17 0.17 0.17 0.24 0.32 0.39 0.46 0.52 0.56 0.54 0.54 0.55 0.57 0.59 0.59 0.56 0.53 0.50 0.47 0.38 0.26 0.18 0.13 0.10 0.09 0.08
0.02 0.01 0.00 0.01 0.01 0.02 0.02 0.02 0.03 0.05 0.08 0.12 0.14 0.13 0.18 0.19 0.22 0.25 0.26 0.27 0.30 0.34 0.38 0.39 0.42 0.45 0.44 0.43 0.43 0.44 0.47 0.50 0.51 0.53 0.49 0.43 0.32 0.23 0.17 0.13 0.09 0.06 0.04
0.01 0.01 0.01 0.01 0.01 0.01 0.01 0.02 0.02 0.04 0.06 0.09 0.12 0.14 0.21 0.21 0.23 0.27 0.32 0.35 0.37 0.37 0.36 0.35 0.36 0.37 0.37 0.36 0.36 0.36 0.38 0.41 0.47 0.51 0.51 0.43 0.30 0.21 0.16 0.11 0.08 0.05 0.04
0.00 0.00 0.00 0.00 0.00 0.00 0.00 0.01 0.01 0.03 0.04 0.06 0.09 0.12 0.16 0.22 0.28 0.33 0.36 0.36 0.37 0.36 0.32 0.30 0.31 0.34 0.33 0.30 0.29 0.31 0.33 0.36 0.42 0.48 0.50 0.42 0.30 0.21 0.15 0.11 0.08 0.07 0.05
0.00 0.00 0.00 0.00 0.00 0.00 0.00 0.00 0.01 0.01 0.02 0.04 0.06 0.10 0.14 0.21 0.29 0.37 0.41 0.40 0.38 0.37 0.34 0.33 0.32 0.31 0.27 0.23 0.21 0.20 0.21 0.26 0.34 0.42 0.42 0.38 0.28 0.20 0.13 0.11 0.09 0.07 0.05
0.00 0.00 0.00 0.00 0.00 0.00 0.00 0.00 0.01 0.01 0.01 0.02 0.04 0.06 0.10 0.14 0.20 0.29 0.37 0.42 0.43 0.42 0.39 0.37 0.36 0.32 0.26 0.19 0.14 0.12 0.17 0.24 0.29 0.32 0.36 0.34 0.25 0.19 0.14 0.12 0.09 0.05 0.05
0.00 0.00 0.00 0.00 0.00 0.00 0.00 0.00 0.00 0.01 0.01 0.01 0.02 0.03 0.04 0.07 0.12 0.18 0.25 0.32 0.37 0.41 0.45 0.48 0.46 0.36 0.26 0.19 0.17 0.17 0.18 0.19 0.19 0.20 0.25 0.28 0.20 0.16 0.15 0.12 0.07 0.04 0.05